FW1298 Statesboro GA US current weather conditions

sailwx.info

Wind from 245 at 4 knots gusting 8

Air temperature 16.1° C
Dewpoint 15.8° C

Last reported at 2020-Feb-26 19:08 UTC.
Time now 2020-Feb-26 20:02 UTC

Location: N 32°00' W 081°47'.
View on Google Maps.

See reports from other nearby stations

  
Tides and Currents Weather Stations Pressure Air Temp Water Temp Dewpoint Dewpoint Depression Visibility Wind Speed Wind Dir Waves Ship Positions
date/time (UTC)wind fromknots sea level pressurealtimeterstation pressurevisibilityair tempwater tempwave heightnotes
2020-Feb-26 19:08 245 4 gusting 8 16.1
2020-Feb-26 19:03 267 4 gusting 9 16.1
2020-Feb-26 18:58 250 5 gusting 13 16.1
2020-Feb-26 18:53 277 5 gusting 13 16.1
2020-Feb-26 18:48 249 6 gusting 13 16.1
2020-Feb-26 18:43 254 6 gusting 13 16.1
2020-Feb-26 18:38 245 6 gusting 13 16.7
2020-Feb-26 18:33 225 7 gusting 13 16.7
2020-Feb-26 18:28 247 6 gusting 13 16.7
2020-Feb-26 18:23 238 5 gusting 11 16.7
2020-Feb-26 18:18 265 6 gusting 11 16.7
2020-Feb-26 18:13 248 6 gusting 13 16.7
2020-Feb-26 18:08 263 6 gusting 13 16.7
2020-Feb-26 18:03 252 6 gusting 11 16.7
2020-Feb-26 17:58 265 4 gusting 9 16.7
2020-Feb-26 17:53 264 3 gusting 8 16.7
2020-Feb-26 17:48 255 3 gusting 7 16.7
2020-Feb-26 17:43 278 4 gusting 7 16.7
2020-Feb-26 17:38 258 4 gusting 8 16.7
2020-Feb-26 17:33 276 6 gusting 11 17.2
2020-Feb-26 17:28 267 6 gusting 11 17.2
2020-Feb-26 17:23 269 6 gusting 12 17.2
2020-Feb-26 17:18 263 6 gusting 12 17.2
2020-Feb-26 17:13 246 5 gusting 11 17.2
2020-Feb-26 17:08 236 5 gusting 8 17.2
2020-Feb-26 17:03 236 4 gusting 8 17.2
2020-Feb-26 16:58 227 3 gusting 6 17.2
2020-Feb-26 16:53 240 3 gusting 7 17.2
2020-Feb-26 16:48 240 3 gusting 7 17.2
2020-Feb-26 16:43 246 2 gusting 6 17.2
2020-Feb-26 16:38 240 2 gusting 6 17.2
2020-Feb-26 16:33 276 3 gusting 7 17.2
2020-Feb-26 16:28 266 3 gusting 7 17.2
2020-Feb-26 16:23 254 4 gusting 8 17.2
2020-Feb-26 16:18 284 4 gusting 8 17.2
2020-Feb-26 16:13 273 4 gusting 8 17.2
2020-Feb-26 16:08 259 4 gusting 8 17.2
2020-Feb-26 16:03 267 3 gusting 7 17.2
2020-Feb-26 15:58 274 3 gusting 7 17.2
2020-Feb-26 15:53 246 4 gusting 7 17.2
2020-Feb-26 15:48 244 4 gusting 8 17.2
2020-Feb-26 15:43 234 4 gusting 10 17.2
2020-Feb-26 15:38 256 4 gusting 10 17.2
2020-Feb-26 15:33 259 3 gusting 9 17.2
2020-Feb-26 15:28 284 2 gusting 6 17.2
2020-Feb-26 15:23 267 2 gusting 6 17.2
2020-Feb-26 15:18 250 2 gusting 7 17.2
2020-Feb-26 15:13 229 3 gusting 7 17.2
2020-Feb-26 15:08 258 3 gusting 7 17.2
2020-Feb-26 15:03 257 4 gusting 8 17.2
2020-Feb-26 14:58 247 5 gusting 8 17.2
2020-Feb-26 14:53 244 5 gusting 8 17.2
2020-Feb-26 14:48 256 4 gusting 9 17.2
2020-Feb-26 14:43 246 4 gusting 9 17.2
2020-Feb-26 14:38 246 4 gusting 7 16.7
2020-Feb-26 14:33 239 5 gusting 9 16.7
2020-Feb-26 14:28 254 6 gusting 11 16.7
2020-Feb-26 14:23 240 5 gusting 11 16.7
2020-Feb-26 14:18 232 6 gusting 13 16.7
2020-Feb-26 14:13 217 6 gusting 13 16.7
2020-Feb-26 14:08 227 5 gusting 11 16.7
2020-Feb-26 14:03 218 5 gusting 11 16.1
2020-Feb-26 13:58 259 4 gusting 9 16.1
2020-Feb-26 13:53 267 6 gusting 10 16.1
2020-Feb-26 13:48 244 6 gusting 11 16.1
2020-Feb-26 13:43 231 6 gusting 11 16.1
2020-Feb-26 13:38 214 5 gusting 9 16.1
2020-Feb-26 13:33 199 4 gusting 9 16.1
2020-Feb-26 13:28 223 4 gusting 6 16.7
2020-Feb-26 13:23 211 3 gusting 6 16.1
2020-Feb-26 13:18 225 1 gusting 4 16.1
2020-Feb-26 13:13 225 0 gusting 4 16.1
2020-Feb-26 13:08 225 0 gusting 3 16.1
2020-Feb-26 13:03 225 0 gusting 3 16.1
2020-Feb-26 12:58 225 1 gusting 3 16.1
2020-Feb-26 12:53 225 2 gusting 6 16.1
2020-Feb-26 12:48 229 3 gusting 6 16.1
2020-Feb-26 12:43 221 3 gusting 6 16.1
2020-Feb-26 12:38 223 3 gusting 6 16.1
2020-Feb-26 12:33 215 3 gusting 6 16.1
2020-Feb-26 12:28 199 4 gusting 6 16.7
2020-Feb-26 12:23 208 4 gusting 6 16.7
2020-Feb-26 12:18 213 3 gusting 6 16.7
2020-Feb-26 12:13 184 3 gusting 6 16.7
2020-Feb-26 12:08 221 4 gusting 7 16.7
2020-Feb-26 12:03 212 3 gusting 7 16.7
2020-Feb-26 11:58 227 3 gusting 6 16.7
2020-Feb-26 11:53 204 2 gusting 6 16.7
2020-Feb-26 11:48 180 1 gusting 4 16.7
2020-Feb-26 11:43 190 2 gusting 4 16.7
2020-Feb-26 11:38 194 2 gusting 5 16.7
2020-Feb-26 11:33 202 3 gusting 6 16.7
2020-Feb-26 11:28 181 5 gusting 8 16.7
2020-Feb-26 11:23 184 5 gusting 8 16.7
2020-Feb-26 11:18 192 4 gusting 6 16.7
2020-Feb-26 11:13 217 3 gusting 5 16.7
2020-Feb-26 11:08 259 2 gusting 5 16.7
2020-Feb-26 11:03 260 2 gusting 5 16.7
2020-Feb-26 10:58 260 2 gusting 5 16.7
2020-Feb-26 10:53 260 2 gusting 3 16.7
2020-Feb-26 10:48 260 2 gusting 5 16.7
2020-Feb-26 10:43 260 2 gusting 5 16.7
2020-Feb-26 10:38 285 1 gusting 2 16.7
2020-Feb-26 10:33 285 1 gusting 2 16.7
2020-Feb-26 10:28 285 1 gusting 3 16.7
2020-Feb-26 10:23 285 2 gusting 3 16.7
2020-Feb-26 10:18 285 1 gusting 3 17.2
2020-Feb-26 10:13 285 1 gusting 3 17.2
2020-Feb-26 10:08 285 2 gusting 3 17.2
2020-Feb-26 10:03 285 1 gusting 3 17.2
2020-Feb-26 09:58 292 0 gusting 3 17.2
2020-Feb-26 09:53 298 0 gusting 3 17.2
2020-Feb-26 09:48 298 0 gusting 2 17.2
2020-Feb-26 09:43 298 0 gusting 3 17.2
2020-Feb-26 09:38 298 0 gusting 3 17.2
2020-Feb-26 09:33 298 1 gusting 4 17.2
2020-Feb-26 09:28 298 2 gusting 6 17.2
2020-Feb-26 09:23 297 3 gusting 6 17.2
2020-Feb-26 09:18 281 3 gusting 6 17.8
2020-Feb-26 09:13 296 3 gusting 6 17.8
2020-Feb-26 09:08 278 2 gusting 6 17.8
2020-Feb-26 09:03 285 2 gusting 6 17.8
2020-Feb-26 08:58 284 2 gusting 6 17.8
2020-Feb-26 08:53 279 2 gusting 6 17.8
2020-Feb-26 08:48 279 3 gusting 6 17.8
2020-Feb-26 08:43 273 2 gusting 6 17.8
2020-Feb-26 08:38 260 1 gusting 5 17.8
2020-Feb-26 08:33 260 1 gusting 5 17.8
2020-Feb-26 08:28 251 2 gusting 7 17.8
2020-Feb-26 08:23 251 2 gusting 7 17.8
2020-Feb-26 08:18 292 1 gusting 3 18.3
2020-Feb-26 08:13 302 0 gusting 2 18.3
2020-Feb-26 08:08 302 1 gusting 3 18.3
2020-Feb-26 08:03 302 2 gusting 4 18.3
2020-Feb-26 07:58 302 3 gusting 6 18.3
2020-Feb-26 07:53 298 2 gusting 6 18.3
2020-Feb-26 07:48 296 1 gusting 6 18.3
2020-Feb-26 07:43 296 1 gusting 3 18.3
2020-Feb-26 07:38 296 1 gusting 4 18.3
2020-Feb-26 07:33 300 3 gusting 6 18.3
2020-Feb-26 07:28 302 4 gusting 6 18.3
2020-Feb-26 07:23 279 3 gusting 6 18.9
2020-Feb-26 07:18 300 2 gusting 5 18.9
2020-Feb-26 07:13 250 1 gusting 4 18.9
2020-Feb-26 07:08 250 2 gusting 4 18.9
2020-Feb-26 07:03 250 1 gusting 4 18.9
2020-Feb-26 06:58 272 1 gusting 5 18.9
2020-Feb-26 06:53 274 2 gusting 6 18.9
2020-Feb-26 06:48 263 3 gusting 7 18.9
2020-Feb-26 06:43 242 3 gusting 7 18.9
2020-Feb-26 06:38 227 3 gusting 6 18.9
2020-Feb-26 06:33 225 3 gusting 6 18.9
2020-Feb-26 06:28 202 3 gusting 6 18.9
2020-Feb-26 06:23 200 4 gusting 6 18.9
2020-Feb-26 06:18 232 3 gusting 6 18.9
2020-Feb-26 06:13 211 3 gusting 6 18.9
2020-Feb-26 06:08 228 3 gusting 6 18.9
2020-Feb-26 06:03 242 3 gusting 6 18.9
2020-Feb-26 05:58 230 4 gusting 6 18.9
2020-Feb-26 05:53 229 5 gusting 9 18.9
2020-Feb-26 05:48 235 5 gusting 9 18.9
2020-Feb-26 05:43 224 5 gusting 8 18.9
2020-Feb-26 05:38 229 4 gusting 9 18.9
2020-Feb-26 05:33 239 4 gusting 9 18.9
2020-Feb-26 05:28 259 4 gusting 9 18.9
2020-Feb-26 05:23 235 5 gusting 9 18.9
2020-Feb-26 05:18 259 6 gusting 10 18.9
2020-Feb-26 05:13 237 5 gusting 10 18.9
2020-Feb-26 05:08 262 6 gusting 9 18.9
2020-Feb-26 05:03 248 5 gusting 10 18.9
2020-Feb-26 04:58 229 4 gusting 10 18.9
2020-Feb-26 04:53 259 3 gusting 7 18.9
2020-Feb-26 04:48 238 3 gusting 7 18.9
2020-Feb-26 04:43 243 3 gusting 7 18.9
2020-Feb-26 04:38 230 4 gusting 8 18.9
2020-Feb-26 04:33 246 4 gusting 8 18.9
2020-Feb-26 04:28 228 4 gusting 7 18.9
2020-Feb-26 04:23 218 4 gusting 7 18.9
2020-Feb-26 04:18 238 4 gusting 7 18.9
2020-Feb-26 04:13 234 3 gusting 6 18.9
2020-Feb-26 04:08 223 4 gusting 7 18.9
2020-Feb-26 04:03 232 5 gusting 8 18.9
2020-Feb-26 03:58 207 4 gusting 8 19.4
2020-Feb-26 03:53 233 4 gusting 8 19.4
2020-Feb-26 03:47 235 5 gusting 11 19.4
2020-Feb-26 03:43 232 6 gusting 11 19.4
2020-Feb-26 03:37 246 5 gusting 9 19.4
2020-Feb-26 03:33 246 4 gusting 9 19.4
2020-Feb-26 03:27 248 4 gusting 9 19.4
2020-Feb-26 03:22 225 5 gusting 11 19.4
2020-Feb-26 03:18 238 5 gusting 11 19.4
2020-Feb-26 03:13 218 6 gusting 9 19.4
2020-Feb-26 03:08 238 6 gusting 9 19.4
2020-Feb-26 03:02 235 6 gusting 9 19.4
2020-Feb-26 02:58 227 5 gusting 8 19.4
2020-Feb-26 02:53 194 6 gusting 12 19.4
2020-Feb-26 02:47 212 6 gusting 12 19.4
2020-Feb-26 02:42 225 6 gusting 9 19.4
2020-Feb-26 02:37 211 5 gusting 8 19.4
2020-Feb-26 02:32 235 4 gusting 8 19.4
2020-Feb-26 02:27 236 2 gusting 6 19.4
2020-Feb-26 02:22 250 1 gusting 4 19.4
2020-Feb-26 02:17 249 1 gusting 6 19.4
2020-Feb-26 02:12 249 1 gusting 6 19.4
2020-Feb-26 02:07 248 1 gusting 4 19.4
2020-Feb-26 02:02 248 1 gusting 4 19.4
2020-Feb-26 01:57 232 2 gusting 5 19.4
2020-Feb-26 01:52 225 2 gusting 5 19.4
2020-Feb-26 01:47 232 1 gusting 3 19.4
2020-Feb-26 01:42 232 1 gusting 3 19.4
2020-Feb-26 01:37 232 1 gusting 3 19.4
2020-Feb-26 01:32 232 1 gusting 4 19.4
2020-Feb-26 01:27 232 1 gusting 4 19.4
2020-Feb-26 01:22 236 1 gusting 3 19.4
2020-Feb-26 01:17 236 1 gusting 3 19.4
2020-Feb-26 01:12 236 1 gusting 4 19.4
2020-Feb-26 01:07 236 3 gusting 6 19.4
2020-Feb-26 01:02 221 3 gusting 6 19.4
2020-Feb-26 00:57 228 3 gusting 6 19.4
2020-Feb-26 00:52 225 3 gusting 6 19.4
2020-Feb-26 00:47 213 3 gusting 7 19.4
2020-Feb-26 00:42 235 3 gusting 7 19.4
2020-Feb-26 00:37 257 1 gusting 5 19.4
2020-Feb-26 00:32 291 0 gusting 3 19.4
2020-Feb-26 00:27 291 1 gusting 3 19.4
2020-Feb-26 00:22 291 1 gusting 2 19.4
2020-Feb-26 00:17 291 1 gusting 3 19.4
2020-Feb-26 00:12 291 0 gusting 3 19.4
2020-Feb-26 00:07 293 19.4
2020-Feb-26 00:02 293 19.4
2020-Feb-25 23:58 295 0 gusting 2 19.4
2020-Feb-25 23:53 295 0 gusting 2 19.4
2020-Feb-25 23:47 295 0 gusting 3 19.4
2020-Feb-25 23:42 295 1 gusting 4 19.4
2020-Feb-25 23:37 295 2 gusting 5 19.4
2020-Feb-25 23:32 291 1 gusting 5 20.0
2020-Feb-25 23:27 252 20.0
2020-Feb-25 23:22 227 20.0
2020-Feb-25 23:17 227 20.0
2020-Feb-25 23:12 227 20.0
2020-Feb-25 23:07 227 20.0
2020-Feb-25 23:02 227 0 gusting 3 20.0
2020-Feb-25 22:57 227 0 gusting 3 20.0
2020-Feb-25 22:52 227 0 gusting 3 20.0
2020-Feb-25 22:47 288 1 gusting 3 20.0
2020-Feb-25 22:42 289 1 gusting 4 20.0
2020-Feb-25 22:37 266 1 gusting 4 20.0
2020-Feb-25 22:32 254 1 gusting 3 20.0
2020-Feb-25 22:27 254 1 gusting 4 20.0
2020-Feb-25 22:22 254 2 gusting 4 20.0
2020-Feb-25 22:17 254 2 gusting 4 20.0
2020-Feb-25 22:12 200 1 gusting 4 20.0
2020-Feb-25 22:08 319 1 gusting 4 20.0
2020-Feb-25 22:02 320 2 gusting 5 20.0
2020-Feb-25 21:57 256 1 gusting 5 20.0
2020-Feb-25 21:52 264 1 gusting 3 20.0
2020-Feb-25 21:47 266 1 gusting 3 20.0
2020-Feb-25 21:42 252 2 gusting 6 20.0
2020-Feb-25 21:37 252 2 gusting 6 20.0
2020-Feb-25 21:32 235 3 gusting 6 20.0
2020-Feb-25 21:27 235 3 gusting 6 20.0
2020-Feb-25 21:22 236 2 gusting 6 20.0
2020-Feb-25 21:17 250 2 gusting 6 20.0
2020-Feb-25 21:12 279 2 gusting 6 20.6
2020-Feb-25 21:07 250 2 gusting 6 20.0
2020-Feb-25 21:02 257 2 gusting 6 20.0
2020-Feb-25 20:57 261 2 gusting 7 20.6
2020-Feb-25 20:52 242 2 gusting 7 20.6
2020-Feb-25 20:47 228 3 gusting 6 20.6
2020-Feb-25 20:42 248 3 gusting 8 20.6
2020-Feb-25 20:37 268 5 gusting 11 20.6
2020-Feb-25 20:32 211 6 gusting 11 20.6
2020-Feb-25 20:27 260 6 gusting 11 20.6
2020-Feb-25 20:22 225 5 gusting 9 20.6
2020-Feb-25 20:17 211 5 gusting 9 20.6
2020-Feb-25 20:12 215 6 gusting 12 20.6
2020-Feb-25 20:07 184 6 gusting 12 20.6
2020-Feb-25 20:02 222 4 gusting 9 20.6
2020-Feb-25 19:57 222 4 gusting 9 20.6
2020-Feb-25 19:52 179 5 gusting 9 20.6
2020-Feb-25 19:47 221 5 gusting 10 20.6
2020-Feb-25 19:42 215 5 gusting 10 20.6
2020-Feb-25 19:37 209 5 gusting 9 20.6
2020-Feb-25 19:32 209 6 gusting 13 20.0
2020-Feb-25 19:27 244 6 gusting 13 20.0
2020-Feb-25 19:22 216 6 gusting 11 20.0
2020-Feb-25 19:17 210 6 gusting 12 20.0
2020-Feb-25 19:12 230 6 gusting 12 20.0
2020-Feb-25 19:07 213 6 gusting 12 20.0
2020-Feb-25 19:02 225 7 gusting 13 20.0
2020-Feb-25 18:57 252 6 gusting 13 20.0
2020-Feb-25 18:52 209 5 gusting 10 20.0
2020-Feb-25 18:47 208 4 gusting 8 20.0
2020-Feb-25 18:42 245 4 gusting 9 20.0
2020-Feb-25 18:37 190 5 gusting 12 20.0
2020-Feb-25 18:32 225 7 gusting 12 19.4
2020-Feb-25 18:27 203 7 gusting 14 19.4
2020-Feb-25 18:22 215 6 gusting 14 19.4
2020-Feb-25 18:17 209 6 gusting 11 19.4
2020-Feb-25 18:12 188 6 gusting 12 19.4
2020-Feb-25 18:07 207 6 gusting 13 19.4
2020-Feb-25 18:02 212 6 gusting 13 19.4
2020-Feb-25 17:57 213 6 gusting 13 18.9
2020-Feb-25 17:52 207 6 gusting 13 18.9
2020-Feb-25 17:47 174 6 gusting 13 18.9
2020-Feb-25 17:42 196 5 gusting 12 18.9
2020-Feb-25 17:37 202 5 gusting 8 18.9
2020-Feb-25 17:32 195 5 gusting 6 18.3
2020-Feb-25 17:27 236 5 gusting 9 18.3
2020-Feb-25 17:22 226 6 gusting 9 18.3
2020-Feb-25 17:17 226 6 gusting 10 18.3
2020-Feb-25 17:12 213 6 gusting 13 18.3
2020-Feb-25 17:07 219 5 gusting 13 18.3
2020-Feb-25 17:02 201 6 gusting 13 18.3
2020-Feb-25 16:57 232 7 gusting 13 18.3
2020-Feb-25 16:52 213 7 gusting 13 18.3
2020-Feb-25 16:47 211 7 gusting 13 17.8
2020-Feb-25 16:42 217 7 gusting 13 17.8
2020-Feb-25 16:37 210 8 gusting 16 17.8
2020-Feb-25 16:32 211 9 gusting 19 17.2
2020-Feb-25 16:27 229 11 gusting 22 17.2
2020-Feb-25 16:22 197 13 gusting 22 17.2
2020-Feb-25 16:17 213 13 gusting 22 16.7
2020-Feb-25 16:12 183 11 gusting 22 16.7
2020-Feb-25 16:07 205 9 gusting 19 16.7
2020-Feb-25 16:02 199 8 gusting 14 16.7
2020-Feb-25 15:57 201 7 gusting 15 16.7
2020-Feb-25 15:52 213 7 gusting 15 16.7
2020-Feb-25 15:47 175 7 gusting 13 17.2
2020-Feb-25 15:42 211 8 gusting 13 17.2
2020-Feb-25 15:37 243 7 gusting 12 17.2
2020-Feb-25 15:32 228 6 gusting 12 17.2
2020-Feb-25 15:27 224 6 gusting 11 17.2
2020-Feb-25 15:22 209 6 gusting 13 17.2
2020-Feb-25 15:17 203 6 gusting 13 17.2
2020-Feb-25 15:12 249 6 gusting 13 17.2
2020-Feb-25 15:07 202 6 gusting 10 17.2
2020-Feb-25 15:02 200 6 gusting 15 17.2
2020-Feb-25 14:57 187 6 gusting 15 16.7
2020-Feb-25 14:52 202 6 gusting 15 16.7
2020-Feb-25 14:47 223 7 gusting 15 16.7
2020-Feb-25 14:42 190 7 gusting 15 16.7
2020-Feb-25 14:37 217 8 gusting 15 16.7
2020-Feb-25 14:32 225 7 gusting 14 16.7
2020-Feb-25 14:27 209 8 gusting 14 16.7
2020-Feb-25 14:22 168 8 gusting 14 16.1
2020-Feb-25 14:17 229 8 gusting 14 16.1
2020-Feb-25 14:12 229 7 gusting 13 16.1
2020-Feb-25 14:07 221 7 gusting 13 16.1
2020-Feb-25 14:02 213 8 gusting 14 16.1
2020-Feb-25 13:57 222 7 gusting 14 16.1
2020-Feb-25 13:52 219 6 gusting 13 16.1
2020-Feb-25 13:47 207 6 gusting 14 16.1
2020-Feb-25 13:42 207 7 gusting 14 15.6
2020-Feb-25 13:37 219 7 gusting 13 15.6
2020-Feb-25 13:32 207 6 gusting 13 15.6
2020-Feb-25 13:27 220 6 gusting 12 15.6
2020-Feb-25 13:22 192 6 gusting 13 15.6
2020-Feb-25 13:17 215 6 gusting 13 15.6
2020-Feb-25 13:12 225 6 gusting 13 15.6
2020-Feb-25 13:07 208 6 gusting 13 15.6
2020-Feb-25 13:02 204 6 gusting 13 15.6
2020-Feb-25 12:57 229 6 gusting 11 15.6
2020-Feb-25 12:52 235 6 gusting 11 15.6
2020-Feb-25 12:47 233 6 gusting 12 15.6
2020-Feb-25 12:42 182 6 gusting 12 15.6
2020-Feb-25 12:37 207 6 gusting 10 15.6
2020-Feb-25 12:32 213 6 gusting 13 15.6
2020-Feb-25 12:27 235 6 gusting 13 15.6
2020-Feb-25 12:22 233 6 gusting 11 15.6
2020-Feb-25 12:17 238 6 gusting 12 15.6
2020-Feb-25 12:12 242 5 gusting 12 15.6
2020-Feb-25 12:07 182 6 gusting 12 15.6
2020-Feb-25 12:02 222 6 gusting 12 15.6
2020-Feb-25 11:57 219 7 gusting 13 15.6
2020-Feb-25 11:52 222 8 gusting 13 15.6
2020-Feb-25 11:47 229 7 gusting 12 15.6
2020-Feb-25 11:42 213 6 gusting 10 15.6
2020-Feb-25 11:37 215 6 gusting 12 15.0
2020-Feb-25 11:32 200 6 gusting 12 15.0
2020-Feb-25 11:27 163 6 gusting 14 15.0
2020-Feb-25 11:22 169 6 gusting 14 15.0
2020-Feb-25 11:17 171 7 gusting 15 15.0
2020-Feb-25 11:12 214 7 gusting 17 15.0
2020-Feb-25 11:07 242 8 gusting 17 15.0
2020-Feb-25 11:02 157 6 gusting 13 15.0
2020-Feb-25 10:57 230 6 gusting 13 15.0
2020-Feb-25 10:52 214 7 gusting 13 15.0
2020-Feb-25 10:47 198 6 gusting 13 15.0
2020-Feb-25 10:42 178 8 gusting 14 15.0
2020-Feb-25 10:37 166 7 gusting 14 15.0
2020-Feb-25 10:32 150 6 gusting 13 15.0
2020-Feb-25 10:27 188 6 gusting 13 15.0
2020-Feb-25 10:22 197 6 gusting 14 15.0
2020-Feb-25 10:17 183 6 gusting 14 14.4
2020-Feb-25 10:12 157 7 gusting 14 14.4
2020-Feb-25 10:07 190 7 gusting 14 14.4
2020-Feb-25 10:02 168 8 gusting 15 14.4
2020-Feb-25 09:57 190 9 gusting 17 14.4
2020-Feb-25 09:52 165 8 gusting 17 14.4
2020-Feb-25 09:47 186 8 gusting 14 14.4
2020-Feb-25 09:42 189 6 gusting 13 14.4
2020-Feb-25 09:37 172 6 gusting 10 14.4
2020-Feb-25 09:32 195 6 gusting 10 14.4
2020-Feb-25 09:27 184 5 gusting 12 14.4
2020-Feb-25 09:22 199 6 gusting 12 14.4
2020-Feb-25 09:17 147 5 gusting 11 13.9
2020-Feb-25 09:12 160 5 gusting 10 13.9
2020-Feb-25 09:07 142 5 gusting 10 13.9
2020-Feb-25 09:02 153 4 gusting 8 13.9
2020-Feb-25 08:57 154 4 gusting 8 13.9
2020-Feb-25 08:52 157 3 gusting 8 13.9
2020-Feb-25 08:47 150 4 gusting 9 13.9
2020-Feb-25 08:42 148 3 gusting 9 13.9
2020-Feb-25 08:37 145 2 gusting 6 13.9
2020-Feb-25 08:32 137 4 gusting 9 13.9
2020-Feb-25 08:27 121 4 gusting 9 13.9
2020-Feb-25 08:22 150 3 gusting 6 13.9
2020-Feb-25 08:17 147 3 gusting 6 13.3
2020-Feb-25 08:12 138 4 gusting 6 13.3
2020-Feb-25 08:07 123 4 gusting 7 13.3
2020-Feb-25 08:02 137 4 gusting 8 13.3
2020-Feb-25 07:57 141 4 gusting 8 13.3
2020-Feb-25 07:52 131 2 gusting 6 13.3
2020-Feb-25 07:47 077 1 gusting 4 13.3
2020-Feb-25 07:42 076 1 gusting 3 13.3
2020-Feb-25 07:37 076 1 gusting 3 13.3
2020-Feb-25 07:32 076 1 gusting 3 13.3
2020-Feb-25 07:27 076 2 gusting 6 13.3
2020-Feb-25 07:22 076 2 gusting 6 13.3
2020-Feb-25 07:17 071 2 gusting 4 13.3
2020-Feb-25 07:12 059 2 gusting 4 13.3
2020-Feb-25 07:07 057 1 gusting 3 13.3
2020-Feb-25 07:02 057 1 gusting 3 13.3
2020-Feb-25 06:57 054 2 gusting 3 13.3
2020-Feb-25 06:52 052 2 gusting 3 13.3
2020-Feb-25 06:47 052 2 gusting 3 13.3
2020-Feb-25 06:42 052 2 gusting 3 13.3
2020-Feb-25 06:37 052 2 gusting 3 13.3
2020-Feb-25 06:32 051 2 gusting 7 13.3
2020-Feb-25 06:27 057 3 gusting 7 13.3
2020-Feb-25 06:22 031 3 gusting 5 13.3
2020-Feb-25 06:17 020 3 gusting 6 13.3
2020-Feb-25 06:12 018 3 gusting 6 13.9
2020-Feb-25 06:07 030 3 gusting 5 13.9
2020-Feb-25 06:02 044 2 gusting 5 13.9
2020-Feb-25 05:57 022 2 gusting 4 13.9
2020-Feb-25 05:52 005 2 gusting 4 13.9
2020-Feb-25 05:47 13.9
2020-Feb-25 05:42 13.9
2020-Feb-25 05:37 013 3 gusting 6 13.9
2020-Feb-25 05:32 017 3 gusting 6 13.9
2020-Feb-25 05:27 344 3 gusting 5 13.9
2020-Feb-25 05:22 355 3 gusting 5 13.9
2020-Feb-25 05:17 038 3 gusting 5 13.9
2020-Feb-25 05:12 057 2 gusting 5 13.9
2020-Feb-25 05:07 113 1 gusting 2 13.9
2020-Feb-25 05:02 113 1 gusting 2 13.9
2020-Feb-25 04:57 113 1 gusting 2 13.9
2020-Feb-25 04:52 113 1 gusting 3 13.9
2020-Feb-25 04:47 113 2 gusting 3 13.9
2020-Feb-25 04:42 113 0 gusting 3 14.4
2020-Feb-25 04:37 113 14.4
2020-Feb-25 04:32 113 0 gusting 3 14.4
2020-Feb-25 04:27 113 2 gusting 6 13.9
2020-Feb-25 04:22 113 3 gusting 6 13.9
2020-Feb-25 04:17 113 4 gusting 6 13.9
2020-Feb-25 04:12 109 3 gusting 6 14.4
2020-Feb-25 04:07 085 1 gusting 5 14.4
2020-Feb-25 04:02 082 0 gusting 4 13.9
2020-Feb-25 03:57 082 0 gusting 4 13.9
2020-Feb-25 03:52 082 2 gusting 4 13.9
2020-Feb-25 03:47 082 2 gusting 4 13.9
2020-Feb-25 03:42 081 3 gusting 5 13.9
2020-Feb-25 03:37 071 1 gusting 5 13.9
2020-Feb-25 03:32 071 0 gusting 4 13.9
2020-Feb-25 03:27 071 0 gusting 2 14.4
2020-Feb-25 03:22 071 1 gusting 3 14.4
2020-Feb-25 03:16 071 1 gusting 3 14.4
2020-Feb-25 03:12 071 2 gusting 4 14.4
2020-Feb-25 03:07 071 1 gusting 4 14.4
2020-Feb-25 03:01 049 0 gusting 4 14.4
2020-Feb-25 02:57 113 0 gusting 3 14.4
2020-Feb-25 02:51 113 0 gusting 2 14.4
2020-Feb-25 02:47 112 0 gusting 3 14.4
2020-Feb-25 02:42 113 2 gusting 6 14.4
2020-Feb-25 02:37 114 3 gusting 6 14.4
2020-Feb-25 02:32 129 4 gusting 7 14.4
2020-Feb-25 02:27 149 5 gusting 9 14.4
2020-Feb-25 02:22 150 4 gusting 9 14.4
2020-Feb-25 02:17 128 2 gusting 6 14.4
2020-Feb-25 02:12 103 2 gusting 5 15.0
2020-Feb-25 02:07 103 2 gusting 5 15.0
2020-Feb-25 02:02 108 2 gusting 6 15.0
2020-Feb-25 01:57 109 2 gusting 6 15.0
2020-Feb-25 01:52 119 2 gusting 6 15.0
2020-Feb-25 01:47 136 4 gusting 8 15.0
2020-Feb-25 01:42 119 5 gusting 9 15.0
2020-Feb-25 01:36 127 5 gusting 9 15.0
2020-Feb-25 01:32 123 4 gusting 8 15.0
2020-Feb-25 01:27 125 6 gusting 10 15.0
2020-Feb-25 01:22 112 6 gusting 10 15.0
2020-Feb-25 01:16 125 6 gusting 10 15.0
2020-Feb-25 01:12 103 6 gusting 10 15.0
2020-Feb-25 01:07 132 6 gusting 11 14.4
2020-Feb-25 01:01 104 6 gusting 11 15.0
2020-Feb-25 00:57 123 6 gusting 11 14.4
2020-Feb-25 00:51 132 6 gusting 11 14.4
2020-Feb-25 00:46 115 6 gusting 10 14.4
2020-Feb-25 00:41 105 6 gusting 9 14.4
2020-Feb-25 00:36 133 6 gusting 9 14.4
2020-Feb-25 00:31 128 5 gusting 9 14.4
2020-Feb-25 00:26 126 4 gusting 7 14.4
2020-Feb-25 00:21 092 4 gusting 7 14.4
2020-Feb-25 00:16 092 4 gusting 7 14.4
2020-Feb-25 00:12 110 4 gusting 8 14.4
2020-Feb-25 00:07 122 6 gusting 9 14.4
2020-Feb-25 00:02 113 5 gusting 9 14.4
2020-Feb-24 23:57 103 4 gusting 8 14.4
2020-Feb-24 23:52 126 5 gusting 8 14.4
2020-Feb-24 23:47 110 6 gusting 10 14.4
2020-Feb-24 23:42 109 6 gusting 10 14.4
2020-Feb-24 23:37 115 4 gusting 8 14.4
2020-Feb-24 23:32 096 4 gusting 9 14.4
2020-Feb-24 23:26 108 6 gusting 9 14.4
2020-Feb-24 23:21 107 5 gusting 9 14.4
2020-Feb-24 23:16 115 5 gusting 9 14.4
2020-Feb-24 23:11 111 6 gusting 10 14.4
2020-Feb-24 23:06 112 6 gusting 10 14.4
2020-Feb-24 23:01 115 6 gusting 10 14.4
2020-Feb-24 22:56 121 6 gusting 10 14.4
2020-Feb-24 22:51 120 5 gusting 10 14.4
2020-Feb-24 22:46 101 4 gusting 7 14.4
2020-Feb-24 22:41 113 5 gusting 9 14.4
2020-Feb-24 22:36 096 6 gusting 9 14.4
2020-Feb-24 22:31 075 6 gusting 9 14.4
2020-Feb-24 22:26 094 6 gusting 7 14.4
2020-Feb-24 22:21 081 5 gusting 7 14.4
2020-Feb-24 22:16 108 4 gusting 7 15.0
2020-Feb-24 22:11 087 4 gusting 7 15.0
2020-Feb-24 22:06 077 3 gusting 6 15.0
2020-Feb-24 22:01 069 4 gusting 7 15.0
2020-Feb-24 21:56 071 4 gusting 7 15.0
2020-Feb-24 21:51 074 4 gusting 7 15.6
2020-Feb-24 21:46 082 4 gusting 7 15.6
2020-Feb-24 21:41 071 3 gusting 7 15.6
2020-Feb-24 21:36 069 3 gusting 6 15.6
2020-Feb-24 21:31 061 3 gusting 6 15.6
2020-Feb-24 21:26 080 2 gusting 6 15.6
2020-Feb-24 21:21 072 3 gusting 6 15.6
2020-Feb-24 21:17 090 3 gusting 6 15.6
2020-Feb-24 21:11 087 5 gusting 9 15.6
2020-Feb-24 21:06 099 6 gusting 9 15.6
2020-Feb-24 21:01 082 5 gusting 9 15.6
2020-Feb-24 20:56 105 6 gusting 8 15.6
2020-Feb-24 20:51 091 6 gusting 8 15.6
2020-Feb-24 20:46 091 6 gusting 10 15.6
2020-Feb-24 20:41 080 5 gusting 10 15.6
2020-Feb-24 20:36 093 4 gusting 8 15.6
2020-Feb-24 20:31 074 5 gusting 8 15.6
2020-Feb-24 20:26 130 4 gusting 8 15.0
2020-Feb-24 20:21 082 4 gusting 7 15.0
2020-Feb-24 20:16 082 4 gusting 7 15.0
2020-Feb-24 20:11 093 5 gusting 6 15.0
2020-Feb-24 20:06 086 4 gusting 6 15.0
2020-Feb-24 20:01 099 3 gusting 6 15.0